Location: Houston
(29.7631°N, 95.3631°W)
Time: 16:03:38
(UTC-06:00)

Envisat - Pass Details

Date: 26 October 2019
Orbit: 764 x 766 km, 98.1° (Epoch: 16 November)

Event Time Altitude Azimuth Distance (km) Brightness Sun altitude
Rises 20:22:46 0° 195° (SSW) 3,217 6.4 -22.9°
Reaches altitude 10° 20:25:25 10° 208° (SSW) 2,294 5.8 -23.5°
Maximum altitude 20:29:35 26° 263° (W) 1,481 5.2 -24.4°
Drops below altitude 10° 20:33:46 10° 319° (NW) 2,304 6.0 -25.3°
Sets 20:36:27 0° 332° (NNW) 3,233 6.6 -25.9°
